CW4114 Weather Reports


Display with metric or nautical units.
time (UTC)temp
F
wind
direction
speed
MPH
gust
MPH
rain 1hr
in
rain 24hr
in
rain mn
in
humidity
%
barometer
mb
20260902014231 72 157 4.0 7.0 0.00 0.00 0.00 93 1010.4
20260902013731 72 172 3.0 7.0 0.00 0.00 0.00 93 1010.5
20260902013459 72 193 3.0 6.0 0.00 0.00 0.00 92 1010.4
20260902012726 72 183 2.0 6.0 0.00 0.00 0.00 92 1010.3
20260902012226 72 162 1.0 4.0 0.00 0.00 0.00 92 1010.3
20260902011955 73 175 0.0 3.0 0.00 0.00 0.00 91 1010.3
20260902011450 73 111 0.0 3.0 0.00 0.00 0.00 91 1010.2
20260902010726 73 179 0.0 5.0 0.00 0.00 0.00 91 1010.2
20260902010228 73 186 2.0 5.0 0.00 0.00 0.00 91 1010.1
20260902005720 73 157 2.0 6.0 0.00 0.00 0.00 91 1010.0
20260902005455 73 206 2.0 6.0 0.00 0.00 0.00 91 1010.0
20260902004720 73 192 1.0 3.0 0.00 0.00 0.00 91 1010.1
20260902004220 74 178 1.0 4.0 0.00 0.00 0.00 91 1010.2
20260902003720 74 162 1.0 9.0 0.00 0.00 0.00 91 1010.3
20260902003220 74 96 2.0 9.0 0.00 0.00 0.00 91 1010.2
20260902002942 74 192 1.0 6.0 0.00 0.00 0.00 91 1010.2
20260902002218 74 151 2.0 6.0 0.00 0.00 0.00 92 1010.3
20260902001718 73 212 2.0 6.0 0.00 0.00 0.00 92 1010.4
20260902001217 73 121 2.0 10.0 0.00 0.00 0.00 93 1010.4
20260902000715 73 178 2.0 10.0 0.00 0.00 0.00 93 1010.4
20260902000213 72 195 4.0 6.0 0.00 0.00 0.00 93 1010.4
20260901235708 72 158 1.0 5.0 0.00 0.00 0.00 92 1010.4
20260901235208 72 80 0.0 3.0 0.00 0.00 0.00 92 1010.4
20260901234931 72 68 2.0 5.0 0.00 0.00 0.00 92 1010.5
20260901234207 72 58 3.0 5.0 0.00 0.00 0.00 91 1010.5
20260901233706 72 90 2.0 3.0 0.00 0.00 0.00 91 1010.5
20260901233207 72 55 2.0 3.0 0.00 0.00 0.00 91 1010.4
20260901232935 72 68 2.0 4.0 0.00 0.00 0.00 92 1010.4
20260901232208 72 62 2.0 4.0 0.00 0.00 0.00 92 1010.4
20260901231707 72 75 1.0 4.0 0.00 0.00 0.00 93 1010.4
20260901231210 71 59 2.0 5.0 0.00 0.00 0.00 93 1010.5
20260901230707 71 61 2.0 5.0 0.00 0.00 0.00 93 1010.6
20260901230209 71 82 2.0 4.0 0.00 0.00 0.00 93 1010.7
20260901225654 71 73 2.0 3.0 0.00 0.00 0.00 93 1010.8
20260901225427 70 69 0.0 3.0 0.00 0.00 0.00 93 1010.8
20260901224926 70 103 2.0 5.0 0.00 0.00 0.00 94 1010.9
20260901224154 70 76 3.0 5.0 0.00 0.00 0.00 94 1010.8
20260901223653 69 63 2.0 5.0 0.00 0.00 0.00 94 1010.8
20260901223152 69 87 2.0 7.0 0.00 0.00 0.00 94 1010.9
20260901222651 69 78 3.0 7.0 0.00 0.00 0.00 94 1011.0
20260901222419 69 73 4.0 7.0 0.00 0.00 0.00 94 1011.0
20260901221651 69 104 3.0 7.0 0.00 0.00 0.00 93 1011.0
20260901221150 69 89 5.0 11.0 0.00 0.00 0.00 93 1011.0
20260901220921 69 83 6.0 11.0 0.00 0.00 0.00 93 1011.1
20260901220150 69 116 4.0 10.0 0.00 0.00 0.00 93 1011.1
20260901215650 69 80 5.0 9.0 0.00 0.00 0.00 92 1011.1
20260901215418 69 97 5.0 9.0 0.00 0.00 0.00 92 1011.1
20260901214650 69 95 3.0 7.0 0.00 0.00 0.00 92 1011.1
20260901214416 69 76 5.0 7.0 0.00 0.00 0.00 92 1011.2
20260901213650 69 110 3.0 7.0 0.00 0.00 0.00 92 1011.2
20260901213149 69 97 4.0 10.0 0.00 0.00 0.00 92 1011.3
20260901212649 69 104 4.0 10.0 0.00 0.00 0.00 92 1011.3
20260901212149 69 90 5.0 9.0 0.00 0.00 0.00 92 1011.3
20260901211648 70 87 6.0 7.0 0.00 0.00 0.00 91 1011.3
20260901211416 70 86 4.0 7.0 0.00 0.00 0.00 91 1011.3
20260901210647 70 55 4.0 7.0 0.00 0.00 0.00 91 1011.5
20260901210152 70 85 4.0 7.0 0.00 0.00 0.00 92 1011.4
20260901205513 70 58 5.0 7.0 0.00 0.00 0.00 92 1011.4
20260901205012 70 78 4.0 7.0 0.00 0.00 0.00 93 1011.5
20260901204737 69 61 4.0 7.0 0.00 0.00 0.00 93 1011.4
20260901204008 69 103 2.0 9.0 0.00 0.00 0.00 93 1011.6
20260901203509 69 48 4.0 9.0 0.00 0.00 0.00 94 1011.6
20260901203008 69 100 3.0 7.0 0.00 0.00 0.00 94 1011.7
20260901202506 68 73 2.0 7.0 0.00 0.00 0.00 95 1011.7
20260901202004 68 154 4.0 7.0 0.00 0.00 0.00 94 1011.8
20260901201507 68 68 3.0 6.0 0.00 0.00 0.00 95 1011.9
20260901201002 68 109 5.0 6.0 0.00 0.00 0.00 94 1012.0
20260901200502 68 97 3.0 7.0 0.00 0.00 0.00 95 1012.1
20260901200255 68 83 3.0 7.0 0.00 0.00 0.00 94 1012.2
20260901195506 68 92 4.0 6.0 0.00 0.00 0.00 94 1012.2
20260901195042 68 75 3.0 6.0 0.00 0.00 0.00 94 1012.2
20260901194503 69 89 3.0 7.0 0.00 0.00 0.00 93 1012.3
20260901194000 69 62 4.0 7.0 0.00 0.00 0.00 94 1012.2
20260901193500 69 65 3.0 7.0 0.00 0.00 0.00 94 1012.1
20260901192958 69 54 5.0 7.0 0.00 0.00 0.00 93 1012.2
20260901192729 69 99 4.0 7.0 0.00 0.00 0.00 93 1012.1
20260901191954 69 95 3.0 7.0 0.00 0.00 0.00 93 1012.2
20260901191719 69 65 4.0 7.0 0.00 0.00 0.00 93 1012.3
20260901190951 69 107 6.0 7.0 0.00 0.00 0.00 93 1012.3
20260901190449 69 45 3.0 7.0 0.00 0.00 0.00 94 1012.4
20260901185950 69 35 2.0 7.0 0.00 0.00 0.00 93 1012.5
20260901185720 69 85 3.0 7.0 0.00 0.00 0.00 94 1012.5
20260901184950 69 62 4.0 6.0 0.00 0.00 0.00 93 1012.5
20260901184448 69 55 4.0 6.0 0.00 0.00 0.00 93 1012.5
20260901183949 69 52 2.0 5.0 0.00 0.00 0.00 93 1012.4
20260901183531 70 34 4.0 6.0 0.00 0.00 0.00 92 1012.4
20260901183027 70 14 2.0 6.0 0.00 0.00 0.00 93 1012.4
20260901182516 70 68 2.0 5.0 0.00 0.00 0.00 93 1012.5
20260901181949 70 75 2.0 6.0 0.00 0.00 0.00 93 1012.5
20260901181449 70 75 2.0 6.0 0.00 0.00 0.00 92 1012.4
20260901180947 70 220 1.0 6.0 0.00 0.00 0.00 93 1012.4
20260901180448 70 78 3.0 5.0 0.00 0.00 0.00 93 1012.4
20260901175946 70 18 2.0 7.0 0.00 0.00 0.00 92 1012.5
20260901175447 70 348 3.0 7.0 0.00 0.00 0.00 91 1012.4
20260901175215 71 93 2.0 6.0 0.00 0.00 0.00 92 1012.4
20260901174449 71 71 3.0 6.0 0.00 0.00 0.00 92 1012.3
20260901172946 70 72 2.0 5.0 0.00 0.00 0.00 91 1012.2
20260901172449 71 59 2.0 5.0 0.00 0.00 0.00 93 1012.0
20260901171946 70 62 4.0 7.0 0.00 0.00 0.00 93 1012.2
20260901171442 70 72 4.0 7.0 0.00 0.00 0.00 91 1012.2
20260901170939 70 76 5.0 7.0 0.00 0.00 0.00 90 1012.1
20260901170439 72 69 5.0 7.0 0.00 0.00 0.00 88 1012.0
20260901165939 74 52 2.0 5.0 0.00 0.00 0.00 90 1012.1
20260901165439 72 104 2.0 4.0 0.00 0.00 0.00 91 1012.0
20260901164941 71 86 2.0 4.0 0.00 0.00 0.00 93 1012.1
20260901164441 70 99 2.0 4.0 0.00 0.00 0.00 92 1012.1
20260901163936 70 71 2.0 5.0 0.00 0.00 0.00 92 1012.3
20260901163434 70 83 2.0 6.0 0.00 0.00 0.00 94 1012.3
20260901162934 70 80 3.0 6.0 0.00 0.00 0.00 92 1012.4
20260901162434 70 59 3.0 5.0 0.00 0.00 0.00 93 1012.5
20260901161933 70 61 4.0 5.0 0.00 0.00 0.00 93 1012.4
20260901161435 70 51 3.0 6.0 0.00 0.00 0.00 93 1012.5
20260901160933 70 85 3.0 6.0 0.00 0.00 0.00 93 1012.5
20260901160436 70 68 4.0 5.0 0.00 0.00 0.00 93 1012.5
20260901155932 69 49 2.0 4.0 0.00 0.00 0.00 94 1012.7
20260901155433 69 42 2.0 4.0 0.00 0.00 0.00 95 1012.7
20260901154933 69 59 3.0 4.0 0.00 0.00 0.00 95 1012.9
20260901154434 68 56 2.0 3.0 0.00 0.00 0.00 97 1013.0
20260901153934 67 37 2.0 4.0 0.00 0.00 0.00 95 1013.0
20260901153432 67 40 2.0 4.0 0.00 0.00 0.00 96 1013.0
20260901152934 67 35 2.0 4.0 0.00 0.00 0.00 96 1013.1
20260901152432 67 55 2.0 4.0 0.00 0.00 0.00 96 1013.1
20260901151932 67 28 1.0 4.0 0.00 0.00 0.00 96 1013.1
20260901151432 67 18 1.0 4.0 0.00 0.00 0.00 96 1013.2
20260901150930 67 12 2.0 4.0 0.00 0.00 0.00 96 1013.2
20260901150430 67 15 1.0 3.0 0.00 0.00 0.00 97 1013.1
20260901145929 67 24 1.0 4.0 0.00 0.00 0.00 97 1013.0
20260901145430 67 69 3.0 4.0 0.00 0.00 0.00 97 1012.8
20260901144925 67 78 1.0 4.0 0.00 0.01 0.00 97 1012.8
20260901144424 67 71 2.0 4.0 0.00 0.01 0.00 97 1012.7
20260901143925 67 79 1.0 4.0 0.00 0.01 0.00 97 1012.6
20260901143655 67 65 2.0 4.0 0.00 0.01 0.00 97 1012.8
20260901142920 67 19 1.0 3.0 0.00 0.01 0.00 97 1012.8
20260901142711 68 7 1.0 4.0 0.00 0.01 0.00 97 1012.8
20260901141922 67 42 1.0 4.0 0.00 0.01 0.00 98 1012.7
20260901141416 67 61 2.0 3.0 0.00 0.01 0.00 98 1012.5
20260901140917 67 78 2.0 3.0 0.00 0.01 0.00 98 1012.6
20260901140416 67 66 1.0 4.0 0.00 0.01 0.00 98 1012.6
20260901135916 67 82 2.0 4.0 0.00 0.02 0.00 98 1012.5
20260901135641 67 52 2.0 3.0 0.00 0.02 0.00 98 1012.6
20260901134914 67 41 1.0 2.0 0.00 0.02 0.00 98 1012.5
20260901134415 67 164 0.0 2.0 0.00 0.02 0.00 98 1012.4
20260901133914 67 164 0.0 2.0 0.00 0.02 0.00 98 1012.5
20260901133412 67 255 0.0 2.0 0.00 0.02 0.00 98 1012.5
20260901132913 67 265 1.0 3.0 0.00 0.02 0.00 98 1012.4
20260901132413 67 224 0.0 3.0 0.00 0.02 0.00 98 1012.3
20260901132140 66 210 1.0 3.0 0.00 0.02 0.00 98 1012.3
20260901131412 66 279 0.0 3.0 0.00 0.02 0.00 98 1012.3
20260901130910 66 299 0.0 3.0 0.00 0.02 0.00 98 1012.3
20260901130411 66 274 0.0 3.0 0.00 0.02 0.00 98 1012.3
20260901125911 66 279 0.0 1.0 0.00 0.02 0.00 98 1012.3
20260901125411 66 248 0.0 2.0 0.00 0.02 0.00 98 1012.3
20260901124907 66 236 1.0 2.0 0.00 0.02 0.00 98 1012.2
20260901124405 66 257 1.0 2.0 0.00 0.02 0.00 98 1012.2
20260901123906 66 271 0.0 1.0 0.00 0.02 0.00 98 1012.1
20260901123406 66 313 0.0 1.0 0.00 0.02 0.00 98 1012.1
20260901122907 66 307 0.0 3.0 0.00 0.02 0.00 98 1012.2
20260901122405 66 306 0.0 3.0 0.00 0.02 0.00 98 1012.2
20260901121905 66 305 1.0 2.0 0.00 0.02 0.00 98 1012.2
20260901121630 66 269 0.0 3.0 0.00 0.02 0.00 98 1012.2
20260901120907 65 271 0.0 3.0 0.00 0.02 0.00 98 1012.2
20260901120404 65 254 1.0 3.0 0.00 0.02 0.00 98 1012.3
20260901115904 65 326 1.0 3.0 0.00 0.02 0.00 98 1012.3
20260901115404 65 286 1.0 3.0 0.00 0.02 0.00 98 1012.2
20260901114904 65 331 0.0 2.0 0.00 0.02 0.00 98 1012.1
20260901114404 65 244 0.0 2.0 0.00 0.02 0.00 98 1012.0
20260901113905 65 302 0.0 2.0 0.00 0.02 0.00 98 1012.0
20260901113403 65 316 0.0 3.0 0.00 0.02 0.00 98 1012.0
20260901112905 65 344 1.0 3.0 0.00 0.02 0.00 98 1012.0
20260901112405 65 355 0.0 2.0 0.00 0.02 0.00 98 1012.0
20260901112137 65 2 0.0 2.0 0.00 0.02 0.00 98 1012.0
20260901111400 65 305 0.0 3.0 0.00 0.02 0.00 98 1011.9
20260901110903 65 306 0.0 3.0 0.00 0.02 0.00 98 1011.9
20260901110401 65 293 1.0 3.0 0.00 0.02 0.00 98 1011.9
20260901105859 65 305 0.0 1.0 0.00 0.02 0.00 98 1011.8
20260901105403 65 30 0.0 3.0 0.00 0.02 0.00 98 1011.7
20260901104900 65 343 0.0 3.0 0.00 0.02 0.00 98 1011.7
20260901104359 65 24 0.0 4.0 0.00 0.02 0.00 97 1011.6
20260901103900 65 319 0.0 4.0 0.00 0.02 0.00 97 1011.7
20260901103359 65 316 0.0 2.0 0.00 0.02 0.00 97 1011.8
20260901102402 65 312 0.0 5.0 0.00 0.02 0.00 97 1011.7
20260901101857 65 329 0.0 3.0 0.00 0.02 0.00 97 1011.8
20260901101357 65 21 0.0 3.0 0.00 0.02 0.00 97 1011.7
20260901100858 65 351 0.0 3.0 0.00 0.02 0.00 97 1011.6
20260901100356 65 344 0.0 2.0 0.00 0.02 0.00 97 1011.6
20260901095855 65 25 0.0 3.0 0.00 0.02 0.00 97 1011.6
20260901095625 65 58 0.0 4.0 0.00 0.02 0.00 97 1011.6
20260901095121 65 300 1.0 4.0 0.00 0.02 0.00 97 1011.6
20260901094357 66 347 0.0 5.0 0.00 0.02 0.00 97 1011.6
20260901094128 66 31 0.0 5.0 0.00 0.02 0.00 97 1011.6
20260901093355 66 1 2.0 5.0 0.00 0.02 0.00 97 1011.5
20260901092854 66 25 0.0 7.0 0.00 0.02 0.00 97 1011.3
20260901092355 66 298 1.0 7.0 0.00 0.02 0.00 97 1011.3
20260901091853 66 306 1.0 7.0 0.00 0.02 0.00 97 1011.4
20260901091352 66 327 2.0 7.0 0.00 0.02 0.00 97 1011.3
20260901090853 66 355 1.0 9.0 0.00 0.02 0.00 97 1011.3
20260901090352 67 278 1.0 9.0 0.00 0.02 0.00 97 1011.1
20260901085850 67 21 1.0 5.0 0.00 0.02 0.00 97 1011.0
20260901085351 67 15 0.0 4.0 0.00 0.02 0.00 97 1011.0
20260901084852 68 313 1.0 9.0 0.00 0.02 0.00 97 1010.9
20260901084351 68 295 1.0 9.0 0.00 0.02 0.00 97 1010.9
20260901083850 68 292 1.0 5.0 0.00 0.02 0.00 97 1010.9
20260901083350 68 336 1.0 6.0 0.00 0.02 0.00 97 1010.8
20260901082850 68 276 1.0 6.0 0.00 0.02 0.00 97 1010.7
20260901082349 68 350 1.0 6.0 0.00 0.02 0.00 97 1010.7
20260901082121 68 320 3.0 6.0 0.00 0.02 0.00 97 1010.7
20260901080847 68 309 2.0 7.0 0.00 0.02 0.00 97 1010.7
20260901080346 69 8 1.0 4.0 0.00 0.02 0.00 97 1010.7
20260901075845 69 309 1.0 4.0 0.00 0.02 0.00 97 1010.6
20260901075346 69 312 0.0 3.0 0.00 0.02 0.00 97 1010.6
20260901074845 69 316 1.0 3.0 0.00 0.02 0.00 97 1010.5
20260901074345 69 324 1.0 3.0 0.00 0.02 0.00 97 1010.6
20260901073845 69 316 0.0 4.0 0.00 0.02 0.00 97 1010.5
20260901073345 69 310 1.0 4.0 0.00 0.02 0.00 97 1010.5
20260901072844 69 305 1.0 5.0 0.00 0.02 0.00 97 1010.4
20260901072342 69 305 2.0 5.0 0.00 0.02 0.00 97 1010.4
20260901072110 69 322 2.0 4.0 0.00 0.02 0.00 97 1010.3
20260901071340 68 288 2.0 5.0 0.00 0.02 0.00 97 1010.5
20260901070839 67 272 2.0 5.0 0.00 0.02 0.00 97 1010.4
20260901070559 66 296 3.0 4.0 0.00 0.02 0.00 96 1010.3
20260901065832 66 275 2.0 3.0 0.00 0.02 0.00 96 1010.3
20260901065332 66 281 0.0 1.0 0.00 0.02 0.00 96 1010.2
20260901064833 66 236 0.0 0.0 0.00 0.02 0.00 95 1010.1
20260901064332 66 28 0.0 0.0 0.00 0.02 0.00 95 1010.1
20260901063832 66 28 0.0 0.0 0.00 0.02 0.00 95 1010.2
20260901063332 66 28 0.0 0.0 0.00 0.02 0.00 95 1010.2
20260901062836 66 28 0.0 0.0 0.00 0.02 0.00 95 1010.1
20260901062604 66 28 0.0 0.0 0.00 0.02 0.00 95 1010.1
20260901061327 67 28 0.0 0.0 0.00 0.02 0.00 95 1010.2
20260901060826 67 28 0.0 0.0 0.00 0.02 0.00 95 1010.1
20260901060327 67 28 0.0 0.0 0.00 0.02 0.00 95 1010.0
20260901055826 67 28 0.0 1.0 0.00 0.02 0.00 95 1010.1
20260901055554 67 28 0.0 1.0 0.00 0.02 0.00 94 1010.2
20260901054827 67 30 0.0 1.0 0.00 0.02 0.00 94 1010.1
20260901054327 67 48 0.0 1.0 0.00 0.02 0.00 94 1010.1
20260901053827 67 48 1.0 1.0 0.00 0.02 0.00 94 1010.1
20260901053325 68 47 0.0 0.0 0.00 0.02 0.00 94 1010.3
20260901052826 68 47 0.0 0.0 0.00 0.02 0.00 94 1010.3
20260901052553 68 45 0.0 0.0 0.00 0.02 0.00 94 1010.3
20260901052054 68 45 0.0 0.0 0.00 0.02 0.00 94 1010.3
20260901051325 68 47 0.0 0.0 0.00 0.02 0.00 93 1010.4
20260901051054 69 47 0.0 1.0 0.00 0.02 0.00 93 1010.3
20260901050326 69 45 0.0 2.0 0.00 0.02 0.00 94 1010.3
20260901045821 69 45 1.0 2.0 0.00 0.02 0.00 94 1010.5
20260901045321 69 52 1.0 1.0 0.00 0.02 0.00 93 1010.5
20260901044822 69 52 0.0 1.0 0.00 0.02 0.00 93 1010.5
20260901044320 69 52 0.0 0.0 0.00 0.02 0.00 93 1010.5
20260901043819 69 52 0.0 1.0 0.00 0.02 0.00 93 1010.5
20260901043319 69 52 0.0 2.0 0.00 0.02 0.00 92 1010.4
20260901042820 70 55 0.0 2.0 0.00 0.02 0.00 93 1010.5
20260901042320 70 290 0.0 3.0 0.00 0.02 0.00 92 1010.4
20260901042047 71 31 0.0 3.0 0.00 0.02 0.00 92 1010.4
20260901041321 71 28 1.0 4.0 0.00 0.02 0.00 92 1010.5
20260901040819 72 357 0.0 6.0 0.00 0.02 0.00 94 1010.3
20260901040318 72 298 3.0 9.0 0.00 0.02 0.00 94 1010.4
20260901035819 72 268 3.0 9.0 0.00 0.02 0.02 94 1010.2
20260901035543 72 247 3.0 6.0 0.00 0.02 0.02 94 1010.1
20260901034818 72 268 3.0 6.0 0.00 0.02 0.02 94 1010.1
20260901033816 72 250 3.0 6.0 0.00 0.02 0.02 93 1010.0
20260901033317 72 268 4.0 6.0 0.00 0.02 0.02 93 1010.0
20260901032819 72 262 3.0 6.0 0.00 0.02 0.02 93 1010.0
20260901032318 72 251 3.0 6.0 0.00 0.02 0.02 92 1010.0
20260901031815 73 252 3.0 5.0 0.00 0.02 0.02 92 1010.0
20260901031316 73 228 3.0 7.0 0.00 0.02 0.02 92 1009.9
20260901030549 73 226 2.0 5.0 0.00 0.02 0.02 92 1009.9
20260901025816 73 216 3.0 5.0 0.00 0.02 0.02 92 1010.2
20260901025549 73 226 2.0 5.0 0.00 0.02 0.02 92 1010.2
20260901024814 73 210 2.0 6.0 0.00 0.02 0.02 91 1010.2
20260901024316 73 243 2.0 6.0 0.00 0.02 0.02 91 1010.2
20260901023812 73 206 3.0 6.0 0.00 0.02 0.02 91 1010.1
20260901023311 74 178 3.0 9.0 0.00 0.02 0.02 91 1010.2
20260901022810 74 212 4.0 9.0 0.00 0.02 0.02 91 1010.2
20260901022312 74 197 4.0 9.0 0.00 0.02 0.02 91 1010.0
20260901021811 74 210 4.0 9.0 0.00 0.02 0.02 91 1010.0
20260901021310 74 228 3.0 9.0 0.00 0.02 0.02 91 1010.0
20260901020811 74 189 4.0 7.0 0.00 0.02 0.02 91 1010.0
20260901020314 74 209 3.0 7.0 0.00 0.02 0.02 91 1010.1
20260901020036 75 212 2.0 6.0 0.00 0.02 0.02 91 1010.1
20260901015308 75 210 2.0 6.0 0.00 0.02 0.02 91 1010.1
20260901014809 75 227 2.0 6.0 0.00 0.02 0.02 91 1010.3